This demonstration page uses our WeatherBlox Daily Observations layout. Learn more.

Hourly Observations for May 16, 2017

Temp ( °F °C ) Dew Point ( °F °C ) Humidity (%) Winds ( mph kmh ) Pressure ( in mb ) Visibility ( mi km ) Precip ( " mm )
12:15 am 00:15 Cloudy with Rain 64 17.6 57 14 80 80 ESE 8 13 29.62 1003 10 16.09344 0 0
12:35 am 00:35 Cloudy with Light Rain 63 17.3 57 13.8 80 80 SE 3 6 29.65 1004 10 16.09344 0 0
12:55 am 00:55 Mostly Cloudy with Light Thunderstorms 62 16.9 58 14.2 84 84 NNE 9 15 29.62 1003 10 16.09344 0 0
1:15 am 01:15 Mostly Cloudy 62 16.7 57 14.1 85 85 E 7 11 29.65 1004 10 16.09344 0 0
1:35 am 01:35 Mostly Cloudy 63 17 56 13.6 81 81 Calm 29.62 1003 10 16.09344 0 0
1:55 am 01:55 Mostly Cloudy 62 16.7 57 13.8 83 83 ESE 10 17 29.59 1002 10 16.09344 0 0
2:15 am 02:15 Partly Cloudy 62 16.6 57 13.8 84 84 SE 10 17 29.59 1002 10 16.09344 0 0
2:35 am 02:35 Clear 62 16.6 57 13.9 84 84 ESE 9 15 29.59 1002 10 16.09344 0 0
2:55 am 02:55 Clear 62 16.8 57 13.8 83 83 ESE 12 19 29.59 1002 10 16.09344 0 0
3:15 am 03:15 Clear 62 16.4 57 13.8 85 85 ESE 10 17 29.56 1001 10 16.09344 0 0
3:35 am 03:35 Clear 61 16 57 13.7 86 86 SE 10 17 29.59 1002 10 16.09344 0 0
3:55 am 03:55 Clear 61 16 56 13.5 85 85 SE 8 13 29.59 1002 10 16.09344 0 0
4:15 am 04:15 Clear 60 15.8 56 13.3 85 85 ESE 14 22 29.59 1002 10 16.09344 0 0
4:35 am 04:35 Clear 60 15.6 56 13.5 87 87 SE 10 17 29.56 1001 10 16.09344 0 0
4:55 am 04:55 Clear 60 15.3 56 13.5 89 89 SE 10 17 29.56 1001 10 16.09344 0 0
5:15 am 05:15 Clear 59 15.1 56 13.4 90 90 SE 10 17 29.56 1001 10 16.09344 0 0
5:35 am 05:35 Clear 59 15.2 56 13.5 90 90 SE 9 15 29.56 1001 10 16.09344 0 0
5:55 am 05:55 Clear 59 15.2 56 13.5 90 90 SE 6 9 29.56 1001 10 16.09344 0 0
6:15 am 06:15 Clear 59 15 56 13.5 91 91 SE 10 17 29.56 1001 10 16.09344 0 0
6:35 am 06:35 Sunny 59 15.2 56 13.5 90 90 SE 10 17 29.53 1000 10 16.09344 0 0
6:55 am 06:55 Sunny 59 15 56 13.4 90 90 ESE 3 6 29.56 1001 10 16.09344 0 0
7:15 am 07:15 Sunny 59 15.2 56 13.6 90 90 SE 3 6 29.56 1001 10 16.09344 0 0
7:35 am 07:35 Sunny 60 15.8 57 14 89 89 Calm 29.56 1001 10 16.09344 0 0
7:55 am 07:55 Sunny 62 16.5 57 14 85 85 SE 5 7 29.53 1000 10 16.09344 0 0
8:15 am 08:15 Sunny 63 17.1 58 14.3 84 84 SSE 7 11 29.53 1000 10 16.09344 0 0
8:35 am 08:35 Sunny 64 17.8 58 14.5 81 81 S 6 9 29.5 999 10 16.09344 0 0
8:55 am 08:55 Sunny 65 18.6 59 15 80 80 S 7 11 29.5 999 10 16.09344 0 0
9:15 am 09:15 Sunny 67 19.5 59 14.9 75 75 SW 7 11 29.47 998 10 16.09344 0 0
9:35 am 09:35 Sunny 68 20.2 59 15.2 73 73 WSW 8 13 29.47 998 10 16.09344 0 0
9:55 am 09:55 Sunny 69 20.3 59 14.9 71 71 W 7 11 29.47 998 10 16.09344 0 0
10:15 am 10:15 Sunny 70 21 60 15.3 70 70 W 8 13 29.5 999 10 16.09344 0 0
10:35 am 10:35 Sunny 71 21.5 60 15.6 69 69 WNW 8 13 29.5 999 10 16.09344 0 0
10:55 am 10:55 Sunny 71 21.7 60 15.5 68 68 WNW 5 7 29.5 999 10 16.09344 0 0
11:15 am 11:15 Sunny 72 22.1 60 15.8 68 68 NW 10 17 29.5 999 10 16.09344 0 0
11:35 am 11:35 Sunny 72 22.3 62 16.6 70 70 NW 10 17 29.5 999 10 16.09344 0 0
11:55 am 11:55 Sunny 73 22.5 62 16.8 70 70 WNW 12 19 29.53 1000 10 16.09344 0 0
12:15 pm 12:15 Partly Cloudy 74 23.1 63 17.4 70 70 NW 6 9 29.53 1000 10 16.09344 0 0
12:35 pm 12:35 Partly Cloudy 74 23.3 62 16.8 67 67 WNW 6 9 29.5 999 10 16.09344 0 0
12:55 pm 12:55 Sunny 75 24 62 16.6 63 63 NW 3 6 29.5 999 10 16.09344 0 0
1:15 pm 13:15 Partly Cloudy 76 24.4 62 16.8 63 63 NNE 3 6 29.5 999 10 16.09344 0 0
1:35 pm 13:35 Sunny 76 24.4 61 16.2 60 60 N 6 9 29.47 998 10 16.09344 0 0
1:55 pm 13:55 Sunny 76 24.7 60 15.3 56 56 NNW 3 6 29.47 998 10 16.09344 0 0
2:15 pm 14:15 Sunny 78 25.5 62 16.4 57 57 NNE 7 11 29.47 998 10 16.09344 0 0
2:35 pm 14:35 Sunny 75 24 60 15.5 59 59 E 5 7 29.5 999 10 16.09344 0 0
2:55 pm 14:55 Partly Cloudy 75 24 62 16.7 64 64 NNE 8 13 29.47 998 10 16.09344 0 0
3:15 pm 15:15 Partly Cloudy 76 24.5 63 17 63 63 NE 8 13 29.47 998 10 16.09344 0 0
3:35 pm 15:35 Sunny 76 24.6 60 15.4 57 57 NNE 9 15 29.47 998 10 16.09344 0 0
3:55 pm 15:55 Sunny 78 25.6 62 16.6 58 58 NE 8 13 29.44 997 10 16.09344 0 0
4:15 pm 16:15 Sunny 76 24.2 61 16.3 61 61 ENE 9 15 29.44 997 7 11.265408 0 0
4:35 pm 16:35 Sunny 76 24.6 61 16.1 59 59 NE 10 17 29.41 996 10 16.09344 0 0
4:55 pm 16:55 Sunny 76 24.5 61 15.9 59 59 ENE 13 20 29.41 996 10 16.09344 0 0
5:15 pm 17:15 Sunny 77 25.1 62 16.7 60 60 ENE 14 22 29.41 996 10 16.09344 0 0
5:35 pm 17:35 Sunny 77 25.2 60 15.7 56 56 NE 13 20 29.41 996 10 16.09344 0 0
5:55 pm 17:55 Sunny 75 23.7 60 15.4 60 60 NE 15 24 29.38 995 10 16.09344 0 0
6:15 pm 18:15 Sunny 73 23 59 15.1 61 61 ENE 16 26 29.38 995 10 16.09344 0 0
6:35 pm 18:35 Sunny 73 22.7 59 14.9 62 62 ENE 14 22 29.35 994 10 16.09344 0 0
6:55 pm 18:55 Sunny 72 22.2 59 15.2 65 65 E 16 26 29.38 995 10 16.09344 0 0
7:15 pm 19:15 Mostly Cloudy 72 22.1 59 15.1 65 65 E 20 31 29.38 995 10 16.09344 0 0
7:35 pm 19:35 Cloudy with Thunderstorms 62 16.6 54 12.1 75 75 SE 28 44 29.44 997 10 16.09344 0 0
7:55 pm 19:55 Cloudy with Light Rain 59 15 55 12.8 87 87 S 21 33 29.47 998 10 16.09344 0 0
8:15 pm 20:15 Mostly Cloudy with Light Rain 60 15.4 55 12.8 85 85 ESE 16 26 29.41 996 10 16.09344 0.01 0.254
8:35 pm 20:35 Partly Cloudy with Light Rain 60 15.5 55 12.8 84 84 SSE 9 15 29.41 996 10 16.09344 0.01 0.254
8:55 pm 20:55 Mostly Cloudy with Light Drizzle 60 15.6 56 13.1 85 85 ESE 12 19 29.41 996 10 16.09344 0.01 0.254
9:15 pm 21:15 Mostly Cloudy 61 16 55 12.7 81 81 ESE 13 20 29.41 996 10 16.09344 0 0
9:35 pm 21:35 Cloudy with Light Rain 60 15.8 56 13.2 85 85 SSE 14 22 29.41 996 10 16.09344 0 0
9:55 pm 21:55 Cloudy with Nearby Thunderstorms 60 15.6 56 13.6 88 88 SE 12 19 29.44 997 10 16.09344 0.03 0.762
10:15 pm 22:15 Cloudy with Light Rain 60 15.5 56 13.6 89 89 W 10 17 29.53 1000 10 16.09344 0 0
10:35 pm 22:35 Cloudy with Nearby Thunderstorms 60 15.5 56 13.5 88 88 NW 5 7 29.53 1000 7 11.265408 0.03 0.762
10:55 pm 22:55 Cloudy 60 15.3 57 13.7 90 90 N 8 13 29.53 1000 7 11.265408 0.06 1.524
11:15 pm 23:15 Cloudy 58 14.7 55 13 90 90 NNW 10 17 29.56 1001 5 8.04672 0.1 2.54
11:35 pm 23:35 Cloudy with Rain 57 13.9 54 12.3 90 90 NW 5 7 29.59 1002 4 6.437376 0.21 5.334
11:55 pm 23:55 Cloudy with Rain 57 13.8 54 12.2 90 90 WNW 12 19 29.59 1002 5 8.04672 0.29 7.366

Powered by AerisWeather